HULIANWANG DIGUI-122

导读 | 豆包AI

HULIANWANG DIGUI-122(“互联网低轨-122”)是中国于2025年12月11日发射的低轨互联网通信卫星,属于中国低轨卫星互联网星座组网的组成部分。低轨卫星互联网具备全域覆盖、低延迟传输的技术优势,可填补偏远地区、海洋空域等地面网络覆盖盲区,为全球宽带通信、应急救灾、移动互联等场景提供支撑,该卫星入轨后已参与在轨测试与星座组网运行。

Basic Information
目录编号:
67062
目录名称:
HULIANWANG DIGUI-122
国际标识:
2025-295D
轨道中心:
EARTH
卫星名称:
HULIANWANG DIGUI-122
卫星全名:
HULIANWANG DIGUI-122
卫星状态:
在轨 (已飞行165 天)
发射日期:
2025-12-11 UTC
国别 :
中国 (CN)
星等 :
--
Orbit Information
数据来源 国际轨道数据 AOE轨道数据
星历时间 2026-05-24T13:23:10+0800
1天前
查看轨道信息
2026-05-24T09:00:00+0800
1天前
查看轨道信息
半长轴 7527.434km 7527.438km
偏心率 0.0000823 0.0000046
轨道倾角 50.002° 50.001°
近地点辐角 349.573° 282.279°
升交点赤经 111.505° 112.161°
平近点角 10.512° 282.661°
近地点 1148.677km 1149.266km
远地点 1149.917km 1149.336km
周期 108.325分钟 108.325分钟
每日圈数 13.293287 13.293275
Detailed Information
使用方式:
暂无
2D Orbit Map
3D Orbit Map
Orbit Altitude Analysis Chart
Orbit Inclination Analysis Chart
Orbit Comprehensive Analysis Chart
View Comprehensive Chart